Change the Weather History Date:

Tuesday, November 6, 2012

  Actual Average Record
Temperature  
Mean Temperature 53 °F -  
Max Temperature 59 °F 70 °F 84 °F (1996)
Min Temperature 47 °F 49 °F 31 °F (2010)
Degree Days  
Heating Degree Days 12    
Growing Degree Days 3 (Base 50)    
Moisture  
Dew Point 47 °F    
Average Humidity 88    
Maximum Humidity 100    
Minimum Humidity 57    
Precipitation  
Precipitation 0.00 in - - ()
Sea Level Pressure  
Sea Level Pressure 29.96 in    
Wind  
Wind Speed 3 mph (NW)    
Max Wind Speed 17 mph    
Max Gust Speed 18 mph    
Visibility 6 miles    
Events Fog    
Averages and records for this station are not official NWS values.
T = Trace of Precipitation, MM = Missing Value Source: NWS Daily Summary

Daily Weather History Graph

Daily Weather History Graph

Search for Another Location

Airport or City:

Trip Planner

Search our weather history database for the weather conditions in past years. The results will help you decide how hot, cold, wet, or windy it might be!

Date:

Astronomy

Nov. 06, 2012 Rise Set
Actual Time 6:07 AM CST 4:50 PM CST
Civil Twilight 5:41 AM CST 5:16 PM CST
Nautical Twilight 5:12 AM CST 5:45 PM CST
Astronomical Twilight 4:43 AM CST 6:14 PM CST
Moon 11:24 PM CST 12:02 PM CST
Length of Visible Light 11h 34m
Length of Day
10h 43m
Waning Gibbous, 53% of the Moon is Illuminated
Nov 6
Waning Gibbous
Nov 6
Last Quarter
Nov 13
New
Nov 20
First Quarter
Nov 28
Full

Hourly Weather History & Observations

Time (CST) Temp. Dew Point Humidity Pressure Visibility Wind Dir Wind Speed Gust Speed Precip Events Conditions
12:37 AM 50.0 °F 50.0 °F 100% 29.94 in 2.5 mi Calm Calm - N/A   Mostly Cloudy
12:40 AM 50.0 °F 50.0 °F 100% 29.94 in 1.5 mi Calm Calm - N/A   Mostly Cloudy
12:47 AM 50.0 °F 50.0 °F 100% 29.94 in 1.2 mi Calm Calm - N/A   Partly Cloudy
12:48 AM 50.0 °F 50.0 °F 100% 29.94 in 1.0 mi Calm Calm - N/A   Scattered Clouds
12:52 AM 50.0 °F 48.2 °F 94% 29.93 in 0.5 mi Calm Calm - N/A Fog Fog
12:55 AM 49.3 °F 48.6 °F 97% 29.93 in 0.5 mi Calm Calm - N/A Fog Fog
12:57 AM 50.0 °F 48.2 °F 94% 29.93 in 0.5 mi Calm Calm - N/A Fog Fog
12:59 AM 50.0 °F 48.2 °F 94% 29.93 in 0.8 mi Calm Calm - N/A   Mostly Cloudy
1:03 AM 50.0 °F 48.2 °F 94% 29.93 in 1.2 mi Calm Calm - N/A   Mostly Cloudy
1:04 AM 50.0 °F 50.0 °F 100% 29.93 in 1.5 mi Calm Calm - N/A   Mostly Cloudy
1:06 AM 50.0 °F 50.0 °F 100% 29.93 in 2.0 mi Calm Calm - N/A   Mostly Cloudy
1:09 AM 50.0 °F 50.0 °F 100% 29.93 in 1.5 mi Calm Calm - N/A   Mostly Cloudy
1:13 AM 50.0 °F 48.2 °F 94% 29.93 in 0.8 mi Calm Calm - N/A   Mist
1:14 AM 50.0 °F 48.2 °F 94% 29.93 in 0.8 mi Calm Calm - N/A   Mist
1:16 AM 50.0 °F 48.2 °F 94% 29.93 in 0.5 mi Calm Calm - N/A Fog Fog
1:21 AM 50.0 °F 48.2 °F 94% 29.93 in 0.5 mi Calm Calm - N/A Fog Fog
1:22 AM 50.0 °F 48.2 °F 94% 29.93 in 0.8 mi Calm Calm - N/A   Mist
1:24 AM 50.0 °F 48.2 °F 94% 29.93 in 1.0 mi Calm Calm - N/A   Mist
1:26 AM 50.0 °F 48.2 °F 94% 29.93 in 1.2 mi Calm Calm - N/A   Overcast
1:32 AM 50.0 °F 48.2 °F 94% 29.92 in 1.2 mi Calm Calm - N/A   Overcast
1:33 AM 50.0 °F 48.2 °F 94% 29.92 in 1.0 mi Calm Calm - N/A   Mist
1:37 AM 50.0 °F 48.2 °F 94% 29.92 in 0.8 mi Calm Calm - N/A   Mist
1:39 AM 50.0 °F 48.2 °F 94% 29.92 in 0.8 mi Calm Calm - N/A   Mist
1:42 AM 50.0 °F 48.2 °F 94% 29.92 in 0.8 mi Calm Calm - N/A   Mist
1:46 AM 50.0 °F 48.2 °F 94% 29.92 in 1.0 mi Calm Calm - N/A   Mist
1:48 AM 50.0 °F 48.2 °F 94% 29.92 in 1.2 mi Calm Calm - N/A   Overcast
1:51 AM 50.0 °F 50.0 °F 100% 29.92 in 2.0 mi Calm Calm - N/A   Overcast
1:54 AM 50.0 °F 50.0 °F 100% 29.92 in 3.0 mi Calm Calm - N/A   Overcast
1:55 AM 49.8 °F 49.3 °F 98% 29.92 in 4.0 mi Calm Calm - N/A   Overcast
2:19 AM 50.0 °F 50.0 °F 100% 29.93 in 9.0 mi Calm Calm - N/A   Mostly Cloudy
2:33 AM 50.0 °F 48.2 °F 94% 29.93 in 2.5 mi WNW 8.1 mph - N/A   Mostly Cloudy
2:35 AM 50.0 °F 48.2 °F 94% 29.93 in 1.5 mi WNW 6.9 mph - N/A   Mostly Cloudy
2:36 AM 50.0 °F 48.2 °F 94% 29.94 in 1.2 mi WNW 6.9 mph - N/A   Mostly Cloudy
2:39 AM 50.0 °F 48.2 °F 94% 29.93 in 0.8 mi WNW 6.9 mph - N/A   Mist
2:40 AM 50.0 °F 48.2 °F 94% 29.93 in 0.8 mi WNW 5.8 mph - N/A   Mist
2:41 AM 50.0 °F 48.2 °F 94% 29.93 in 0.8 mi WNW 5.8 mph - N/A   Mist
2:44 AM 50.0 °F 48.2 °F 94% 29.93 in 0.8 mi NW 5.8 mph - N/A   Mist
2:45 AM 50.0 °F 48.2 °F 94% 29.93 in 1.0 mi NW 5.8 mph - N/A   Mist
2:47 AM 50.0 °F 48.2 °F 94% 29.94 in 1.2 mi NW 6.9 mph - N/A   Mostly Cloudy
2:49 AM 50.0 °F 48.2 °F 94% 29.94 in 1.5 mi NW 6.9 mph - N/A   Mostly Cloudy
2:53 AM 50.0 °F 48.2 °F 94% 29.94 in 1.8 mi WNW 6.9 mph - N/A   Mostly Cloudy
2:55 AM 49.3 °F 48.7 °F 98% 29.94 in 2.0 mi WNW 5.8 mph - N/A   Overcast
3:00 AM 50.0 °F 48.2 °F 94% 29.94 in 3.0 mi WNW 4.6 mph - N/A   Overcast
3:16 AM 50.0 °F 48.2 °F 94% 29.95 in 10.0 mi NW 3.5 mph - N/A   Overcast
3:25 AM 48.2 °F 48.2 °F 100% 29.95 in 10.0 mi Calm Calm - N/A   Overcast
3:33 AM 48.2 °F 48.2 °F 100% 29.95 in 10.0 mi Calm Calm - N/A   Overcast
3:51 AM 48.2 °F 48.2 °F 100% 29.95 in 5.0 mi WNW 4.6 mph - N/A   Overcast
3:55 AM 48.2 °F 47.7 °F 98% 29.96 in 2.5 mi West 3.5 mph - N/A   Overcast
3:59 AM 48.2 °F 48.2 °F 100% 29.96 in 1.2 mi West 4.6 mph - N/A   Overcast
4:00 AM 48.2 °F 48.2 °F 100% 29.96 in 1.2 mi West 4.6 mph - N/A   Overcast
4:04 AM 48.2 °F 48.2 °F 100% 29.96 in 1.0 mi Calm Calm - N/A   Overcast
4:07 AM 48.2 °F 48.2 °F 100% 29.96 in 1.0 mi Calm Calm - N/A   Overcast
4:09 AM 48.2 °F 48.2 °F 100% 29.96 in 1.5 mi Calm Calm - N/A   Overcast
4:11 AM 48.2 °F 48.2 °F 100% 29.96 in 2.0 mi Calm Calm - N/A   Overcast
4:12 AM 48.2 °F 48.2 °F 100% 29.96 in 2.5 mi Calm Calm - N/A   Overcast
4:14 AM 48.2 °F 48.2 °F 100% 29.95 in 3.0 mi Calm Calm - N/A   Overcast
4:27 AM 48.2 °F 48.2 °F 100% 29.94 in 7.0 mi SW 3.5 mph - N/A   Scattered Clouds
4:37 AM 48.2 °F 48.2 °F 100% 29.94 in 5.0 mi Calm Calm - N/A   Scattered Clouds
4:47 AM 48.2 °F 46.4 °F 93% 29.95 in 4.0 mi Calm Calm - N/A   Mostly Cloudy
4:55 AM 47.8 °F 47.3 °F 98% 29.95 in 6.0 mi Calm Calm - N/A   Mostly Cloudy
5:11 AM 48.2 °F 46.4 °F 93% 29.95 in 8.0 mi Calm Calm - N/A   Overcast
5:30 AM 48.2 °F 48.2 °F 100% 29.96 in 10.0 mi Calm Calm - N/A   Overcast
5:52 AM 48.2 °F 48.2 °F 100% 29.96 in 10.0 mi Calm Calm - N/A   Mostly Cloudy
5:55 AM 48.0 °F 47.5 °F 98% 29.96 in 10.0 mi WSW 3.5 mph - N/A   Mostly Cloudy
5:58 AM 48.2 °F 48.2 °F 100% 29.96 in 10.0 mi WSW 3.5 mph - N/A   Mostly Cloudy
6:03 AM 48.2 °F 48.2 °F 100% 29.96 in 10.0 mi Calm Calm - N/A   Mostly Cloudy
6:18 AM 48.2 °F 48.2 °F 100% 29.96 in 8.0 mi Variable 3.5 mph - N/A   Mostly Cloudy
6:48 AM 50.0 °F 48.2 °F 94% 29.98 in 10.0 mi West 3.5 mph - N/A   Scattered Clouds
6:55 AM 49.3 °F 48.7 °F 98% 29.98 in 10.0 mi Calm Calm - N/A   Partly Cloudy
7:55 AM 51.8 °F 49.1 °F 90% 29.99 in 10.0 mi WNW 6.9 mph - N/A   Scattered Clouds
8:38 AM 51.8 °F 48.2 °F 88% 30.00 in 10.0 mi WNW 9.2 mph - N/A   Mostly Cloudy
8:47 AM 53.6 °F 46.4 °F 77% 30.00 in 10.0 mi NW 11.5 mph - N/A   Overcast
8:55 AM 52.2 °F 47.1 °F 83% 30.01 in 10.0 mi WNW 10.4 mph - N/A   Overcast
8:58 AM 51.8 °F 46.4 °F 82% 30.01 in 10.0 mi WNW 10.4 mph - N/A   Overcast
9:21 AM 55.4 °F 46.4 °F 72% 30.01 in 10.0 mi NNW 12.7 mph - N/A   Scattered Clouds
9:28 AM 55.4 °F 46.4 °F 72% 30.01 in 10.0 mi NNW 12.7 mph - N/A   Mostly Cloudy
9:55 AM 54.5 °F 45.0 °F 70% 30.01 in 10.0 mi NW 12.7 mph 18.4 mph N/A   Mostly Cloudy
10:42 AM 55.4 °F 44.6 °F 67% 30.00 in 10.0 mi NW 11.5 mph - N/A   Overcast
10:45 AM 55.4 °F 44.6 °F 67% 30.00 in 10.0 mi NW 17.3 mph - N/A   Overcast
10:47 AM 55.4 °F 44.6 °F 67% 30.00 in 10.0 mi NW 12.7 mph - N/A   Overcast
10:49 AM 55.4 °F 44.6 °F 67% 30.00 in 10.0 mi NW 12.7 mph - N/A   Overcast
10:55 AM 55.6 °F 45.1 °F 68% 30.00 in 10.0 mi NNW 10.4 mph - N/A   Overcast
11:18 AM 57.2 °F 44.6 °F 63% 29.98 in 10.0 mi NNW 11.5 mph - N/A   Mostly Cloudy
11:20 AM 57.2 °F 44.6 °F 63% 29.98 in 10.0 mi North 12.7 mph - N/A   Mostly Cloudy
11:36 AM 59.0 °F 44.6 °F 59% 29.97 in 10.0 mi NNW 11.5 mph - N/A   Mostly Cloudy
11:53 AM 57.2 °F 44.6 °F 63% 29.97 in 10.0 mi Variable 6.9 mph - N/A   Overcast
11:55 AM 57.7 °F 44.1 °F 60% 29.97 in 10.0 mi NNW 8.1 mph - N/A   Overcast
12:09 PM 57.2 °F 44.6 °F 63% 29.96 in 10.0 mi NNW 9.2 mph - N/A   Overcast
12:55 PM 57.7 °F 43.7 °F 60% 29.94 in 10.0 mi NNW 9.2 mph - N/A   Overcast
1:55 PM 58.8 °F 43.5 °F 57% 29.94 in 10.0 mi NNW 5.8 mph - N/A   Partly Cloudy
2:55 PM 58.1 °F 43.7 °F 59% 29.95 in 10.0 mi NW 13.8 mph - N/A   Overcast
3:55 PM 57.0 °F 43.7 °F 61% 29.96 in 10.0 mi WNW 9.2 mph - N/A   Overcast
4:55 PM 55.8 °F 45.3 °F 68% 29.95 in 10.0 mi WNW 3.5 mph - N/A   Overcast
5:23 PM 55.4 °F 44.6 °F 67% 29.97 in 10.0 mi NNW 9.2 mph - N/A   Overcast
5:42 PM 55.4 °F 46.4 °F 72% 29.98 in 10.0 mi North 6.9 mph - N/A   Overcast
5:45 PM 55.4 °F 46.4 °F 72% 29.98 in 10.0 mi North 6.9 mph - N/A   Overcast
5:48 PM 55.4 °F 44.6 °F 67% 29.98 in 10.0 mi North 9.2 mph - N/A   Overcast
5:55 PM 54.9 °F 45.5 °F 71% 29.98 in 10.0 mi North 5.8 mph - N/A   Overcast
6:55 PM 54.3 °F 46.0 °F 74% 29.99 in 10.0 mi North 4.6 mph - N/A   Overcast
7:55 PM 54.0 °F 46.0 °F 75% 30.00 in 10.0 mi NNW 5.8 mph - N/A   Overcast
8:55 PM 53.4 °F 46.2 °F 77% 30.00 in 10.0 mi Calm Calm - N/A   Overcast
9:55 PM 52.7 °F 47.1 °F 81% 30.01 in 10.0 mi Calm Calm - N/A   Overcast
10:55 PM 52.3 °F 47.5 °F 84% 30.00 in 10.0 mi Calm Calm - N/A   Overcast
11:55 PM 52.0 °F 47.8 °F 86% 29.99 in 10.0 mi Calm Calm - N/A   Overcast
11:58 PM 51.8 °F 48.2 °F 88% 29.99 in 10.0 mi Calm Calm - N/A   Light Drizzle